GW1572 Weather Reports


Display with metric or nautical units.
time (UTC)temp
F
wind
direction
speed
MPH
gust
MPH
rain 1hr
in
rain 24hr
in
rain mn
in
humidity
%
barometer
mb
20260508231513 72 232 1.0 1.0 0.00 0.00 0.00 37 1002.7
20260508230947 72 349 2.0 2.0 0.00 0.00 0.00 40 1002.7
20260508230323 72 344 0.0 1.0 0.00 0.00 0.00 43 1002.7
20260508225749 70 308 2.0 2.0 0.00 0.00 0.00 40 1002.7
20260508225148 69 14 2.0 3.0 0.00 0.00 0.00 41 1003.0
20260508224518 70 23 3.0 4.0 0.00 0.00 0.00 40 1002.7
20260508223947 70 16 4.0 7.0 0.00 0.00 0.00 38 1003.0
20260508223318 72 343 4.0 6.0 0.00 0.00 0.00 37 1002.7
20260508222127 72 346 3.0 4.0 0.00 0.00 0.00 37 1002.7
20260508221541 72 332 3.0 3.0 0.00 0.00 0.00 38 1002.7
20260508220935 72 311 4.0 4.0 0.00 0.00 0.00 38 1003.0
20260508220310 72 2 5.0 8.0 0.00 0.00 0.00 40 1002.7
20260508215732 71 308 2.0 2.0 0.00 0.00 0.00 39 1002.7
20260508214546 72 263 3.0 6.0 0.00 0.00 0.00 38 1002.7
20260508213913 71 302 3.0 4.0 0.00 0.00 0.00 42 1003.0
20260508212116 72 320 3.0 4.0 0.00 0.00 0.00 40 1003.3
20260508211515 73 303 1.0 2.0 0.00 0.00 0.00 38 1003.0
20260508210918 74 330 3.0 4.0 0.00 0.00 0.00 41 1003.0
20260508210320 72 344 2.0 3.0 0.00 0.00 0.00 40 1002.7
20260508205739 71 337 5.0 7.0 0.00 0.00 0.00 41 1003.0
20260508205124 73 35 3.0 4.0 0.00 0.00 0.00 40 1003.0
20260508204551 72 1 3.0 3.0 0.00 0.00 0.00 39 1003.3
20260508203919 72 348 6.0 8.0 0.00 0.00 0.00 38 1003.3
20260508203320 73 16 3.0 3.0 0.00 0.00 0.00 39 1003.7
20260508202734 73 340 3.0 6.0 0.00 0.00 0.00 40 1003.3
20260508202114 73 314 6.0 10.0 0.00 0.00 0.00 39 1003.3
20260508201518 73 338 3.0 3.0 0.00 0.00 0.00 40 1003.3
20260508200949 74 354 3.0 4.0 0.00 0.00 0.00 43 1003.3
20260508200343 73 355 4.0 6.0 0.00 0.00 0.00 38 1003.3
20260508195740 73 6 4.0 7.0 0.00 0.00 0.00 44 1003.3
20260508195133 73 23 4.0 6.0 0.00 0.00 0.00 40 1003.7
20260508194552 72 299 2.0 3.0 0.00 0.00 0.00 39 1004.0
20260508193931 72 5 6.0 7.0 0.00 0.00 0.00 39 1004.4
20260508193322 71 294 3.0 3.0 0.00 0.00 0.00 43 1004.4
20260508192726 72 359 4.0 4.0 0.00 0.00 0.00 39 1004.4
20260508192146 72 15 4.0 4.0 0.00 0.00 0.00 41 1004.4
20260508191549 72 303 2.0 2.0 0.00 0.00 0.00 44 1004.4
20260508190936 72 309 3.0 3.0 0.00 0.00 0.00 47 1004.7
20260508190343 71 338 2.0 3.0 0.00 0.00 0.00 40 1004.7
20260508185114 72 270 2.0 4.0 0.00 0.00 0.00 42 1005.0
20260508184545 72 35 6.0 7.0 0.00 0.00 0.00 41 1005.0
20260508183944 71 323 2.0 3.0 0.00 0.00 0.00 43 1005.4
20260508183338 70 196 4.0 7.0 0.00 0.00 0.00 45 1005.4
20260508182736 70 315 4.0 7.0 0.00 0.00 0.00 41 1005.7
20260508181532 70 27 4.0 6.0 0.00 0.00 0.00 43 1005.7
20260508180921 71 358 5.0 8.0 0.00 0.00 0.00 42 1005.4
20260508180349 70 235 1.0 2.0 0.00 0.00 0.00 43 1005.4
20260508175740 71 329 3.0 3.0 0.00 0.00 0.00 43 1005.7
20260508175143 69 352 3.0 3.0 0.00 0.00 0.00 43 1006.0
20260508174511 70 10 6.0 8.0 0.00 0.00 0.00 43 1006.0
20260508173923 70 2 3.0 3.0 0.00 0.00 0.00 42 1006.0
20260508173320 69 297 6.0 7.0 0.00 0.00 0.00 51 1006.0
20260508172740 69 289 2.0 2.0 0.00 0.00 0.00 45 1006.0
20260508172148 69 356 4.0 7.0 0.00 0.00 0.00 46 1006.4
20260508170941 69 356 2.0 2.0 0.00 0.00 0.00 44 1006.4
20260508170314 69 249 2.0 2.0 0.00 0.00 0.00 43 1006.4
20260508165709 68 354 3.0 4.0 0.00 0.00 0.00 50 1006.7
20260508165120 68 308 2.0 3.0 0.00 0.00 0.00 47 1007.1
20260508164533 68 356 3.0 4.0 0.00 0.00 0.00 45 1006.7
20260508163331 67 236 6.0 8.0 0.00 0.00 0.00 45 1007.1
20260508162723 67 283 6.0 8.0 0.00 0.00 0.00 48 1007.4
20260508162130 67 305 6.0 7.0 0.00 0.00 0.00 50 1007.7
20260508161515 67 342 4.0 6.0 0.00 0.00 0.00 43 1007.7
20260508160931 67 30 6.0 8.0 0.00 0.00 0.00 43 1007.4
20260508160338 67 318 4.0 4.0 0.00 0.00 0.00 45 1007.7
20260508155110 66 337 2.0 2.0 0.00 0.00 0.00 49 1007.7
20260508154521 65 341 1.0 2.0 0.00 0.00 0.00 48 1007.7
20260508153937 64 289 1.0 1.0 0.00 0.00 0.00 47 1007.7
20260508153342 64 293 0.0 1.0 0.00 0.00 0.00 50 1008.1
20260508152746 64 278 2.0 2.0 0.00 0.00 0.00 53 1007.7
20260508151536 63 321 2.0 2.0 0.00 0.00 0.00 52 1008.1
20260508150945 63 327 3.0 3.0 0.00 0.00 0.00 52 1007.7
20260508145746 61 336 0.0 1.0 0.00 0.00 0.00 53 1008.1
20260508145148 61 312 2.0 3.0 0.00 0.00 0.00 53 1008.4
20260508143942 61 282 3.0 4.0 0.00 0.00 0.00 53 1008.4
20260508142727 60 320 4.0 6.0 0.00 0.00 0.00 59 1008.1
20260508142149 58 286 0.0 0.0 0.00 0.00 0.00 64 1008.4
20260508141518 57 313 1.0 1.0 0.00 0.00 0.00 70 1008.4
20260508140936 55 354 0.0 1.0 0.00 0.00 0.00 75 1008.1
20260508135748 55 315 0.0 0.0 0.00 0.00 0.00 74 1008.4
20260508135146 54 323 0.0 0.0 0.00 0.00 0.00 71 1008.4
20260508134522 55 8 2.0 2.0 0.00 0.00 0.00 66 1008.4
20260508133916 53 331 1.0 1.0 0.00 0.00 0.00 73 1008.4
20260508133312 52 356 2.0 2.0 0.00 0.00 0.00 78 1008.4
20260508132726 51 286 0.0 0.0 0.00 0.00 0.00 79 1008.4
20260508132122 50 6 1.0 1.0 0.00 0.00 0.00 81 1008.8
20260508130308 46 341 0.0 1.0 0.00 0.00 0.00 96 1008.4
20260508125126 44 284 0.0 0.0 0.00 0.00 0.00 99 1008.8
20260508123936 43 285 0.0 0.0 0.00 0.00 0.00 99 1008.8
20260508123350 42 285 0.0 0.0 0.00 0.00 0.00 99 1008.8
20260508122731 41 285 0.0 0.0 0.00 0.00 0.00 99 1008.8
20260508122120 41 275 0.0 0.0 0.00 0.00 0.00 99 1008.8
20260508121538 40 280 0.0 0.0 0.00 0.00 0.00 99 1008.8
20260508120920 40 283 0.0 0.0 0.00 0.00 0.00 99 1008.4
20260508115710 39 283 0.0 0.0 0.00 0.00 0.00 99 1008.4
20260508115148 39 284 0.0 0.0 0.00 0.00 0.00 99 1008.1
20260508114519 38 297 0.0 0.0 0.00 0.00 0.00 99 1008.4
20260508113930 38 275 0.0 0.0 0.00 0.00 0.00 99 1008.4
20260508113316 38 276 0.0 0.0 0.00 0.00 0.00 99 1008.4
20260508112719 38 285 0.0 0.0 0.00 0.00 0.00 99 1008.4
20260508112143 38 276 0.0 0.0 0.00 0.00 0.00 99 1008.4
20260508111542 37 271 0.0 0.0 0.00 0.00 0.00 99 1008.4
20260508110922 37 272 0.0 0.0 0.00 0.00 0.00 99 1008.4
20260508110326 37 272 0.0 0.0 0.00 0.00 0.00 99 1008.1
20260508105142 37 280 0.0 0.0 0.00 0.00 0.00 99 1008.1
20260508103936 37 3 0.0 0.0 0.00 0.00 0.00 99 1008.1
20260508103338 37 276 0.0 0.0 0.00 0.00 0.00 99 1008.1
20260508102715 37 275 0.0 0.0 0.00 0.00 0.00 99 1008.1
20260508102115 37 277 0.0 0.0 0.00 0.00 0.00 99 1008.1
20260508101512 37 277 0.0 0.0 0.00 0.00 0.00 99 1007.7
20260508100938 37 270 0.0 0.0 0.00 0.00 0.00 99 1007.7
20260508100331 37 261 0.0 0.0 0.00 0.00 0.00 99 1007.7
20260508095748 37 261 0.0 0.0 0.00 0.00 0.00 99 1007.7
20260508095130 37 260 0.0 0.0 0.00 0.00 0.00 99 1007.7
20260508094522 37 270 0.0 0.0 0.00 0.00 0.00 99 1007.7
20260508093943 37 262 0.0 0.0 0.00 0.00 0.00 99 1007.4
20260508092722 38 265 0.0 0.0 0.00 0.00 0.00 99 1007.7
20260508092142 38 261 0.0 0.0 0.00 0.00 0.00 98 1007.7
20260508091528 38 273 0.0 0.0 0.00 0.00 0.00 98 1007.7
20260508090932 38 272 0.0 0.0 0.00 0.00 0.00 98 1007.4
20260508085139 38 273 0.0 0.0 0.00 0.00 0.00 98 1007.7
20260508084547 38 288 0.0 0.0 0.00 0.00 0.00 98 1007.4
20260508083912 38 280 0.0 0.0 0.00 0.00 0.00 98 1007.7
20260508083313 38 258 0.0 0.0 0.00 0.00 0.00 98 1007.4
20260508082735 38 255 0.0 0.0 0.00 0.00 0.00 98 1007.4
20260508082150 38 251 0.0 0.0 0.00 0.00 0.00 98 1007.4
20260508081537 38 236 0.0 0.0 0.00 0.00 0.00 98 1007.4
20260508080328 38 278 0.0 0.0 0.00 0.00 0.00 98 1007.4
20260508075731 38 272 0.0 0.0 0.00 0.00 0.00 97 1007.4
20260508075120 38 274 0.0 0.0 0.00 0.00 0.00 97 1007.1
20260508074529 38 292 0.0 0.0 0.00 0.00 0.00 97 1007.4
20260508073327 38 256 0.0 0.0 0.00 0.00 0.00 97 1007.1
20260508072733 38 261 0.0 0.0 0.00 0.00 0.00 97 1007.4
20260508072115 38 266 0.0 0.0 0.00 0.00 0.00 97 1007.1
20260508071537 38 255 0.0 0.0 0.00 0.00 0.00 97 1007.1
20260508070951 38 266 0.0 0.0 0.00 0.00 0.00 96 1007.4
20260508070338 39 260 0.0 0.0 0.00 0.00 0.00 97 1007.1
20260508065738 39 272 0.0 0.0 0.00 0.00 0.00 96 1007.4
20260508065133 39 263 0.0 0.0 0.00 0.00 0.00 96 1007.4
20260508064520 40 258 0.0 0.0 0.00 0.00 0.00 97 1007.4
20260508063925 40 266 0.0 0.0 0.00 0.00 0.00 96 1007.4
20260508063318 40 257 0.0 0.0 0.00 0.00 0.00 96 1007.4
20260508062742 40 276 0.0 0.0 0.00 0.00 0.00 96 1007.7
20260508062146 40 265 0.0 0.0 0.00 0.00 0.00 96 1007.4
20260508061530 40 272 0.0 0.0 0.00 0.00 0.00 96 1007.7
20260508060909 40 262 0.0 0.0 0.00 0.00 0.00 96 1007.4
20260508060341 40 279 0.0 0.0 0.00 0.00 0.00 95 1007.4
20260508055751 40 297 0.0 0.0 0.00 0.00 0.00 95 1007.1
20260508055141 40 265 0.0 0.0 0.00 0.00 0.00 95 1007.4
20260508054544 40 261 0.0 0.0 0.00 0.00 0.00 95 1007.4
20260508052738 41 261 0.0 0.0 0.00 0.00 0.00 94 1007.4
20260508052132 41 260 0.0 0.0 0.00 0.00 0.00 94 1007.7
20260508051526 41 250 0.0 0.0 0.00 0.00 0.00 94 1007.7
20260508050945 41 260 0.0 0.0 0.00 0.00 0.00 93 1007.4
20260508050309 41 261 0.0 0.0 0.00 0.00 0.00 93 1007.4
20260508045724 41 261 0.0 0.0 0.00 0.00 0.00 93 1007.7
20260508045128 41 256 0.0 0.0 0.00 0.00 0.00 92 1007.4
20260508044542 41 259 0.0 0.0 0.00 0.00 0.00 92 1007.7
20260508043936 42 267 0.0 0.0 0.00 0.00 0.00 91 1007.4
20260508043347 42 206 0.0 0.0 0.00 0.00 0.00 91 1007.7
20260508042723 42 261 0.0 0.0 0.00 0.00 0.00 91 1007.4
20260508042141 42 258 0.0 0.0 0.00 0.00 0.00 91 1007.7
20260508041532 42 266 0.0 0.0 0.00 0.00 0.00 90 1007.4
20260508040318 43 266 0.0 0.0 0.00 0.00 0.00 90 1007.4
20260508035120 43 270 0.0 0.0 0.00 0.00 0.00 89 1007.4
20260508034526 43 268 0.0 0.0 0.00 0.00 0.00 88 1007.4
20260508033916 43 270 0.0 0.0 0.00 0.00 0.00 88 1007.4
20260508033321 44 268 0.0 0.0 0.00 0.00 0.00 87 1007.4
20260508032734 44 286 0.0 0.0 0.00 0.00 0.00 85 1007.4
20260508032147 44 275 0.0 0.0 0.00 0.00 0.00 85 1007.4
20260508031526 44 282 0.0 0.0 0.00 0.00 0.00 84 1007.4
20260508030931 45 263 0.0 0.0 0.00 0.00 0.00 84 1007.1
20260508030311 45 260 0.0 0.0 0.00 0.00 0.00 85 1007.1
20260508025719 45 246 0.0 0.0 0.00 0.00 0.00 84 1007.4
20260508025114 46 266 0.0 0.0 0.00 0.00 0.00 82 1007.4
20260508024525 46 266 0.0 0.0 0.00 0.00 0.00 82 1007.4
20260508023946 46 259 0.0 0.0 0.00 0.00 0.00 82 1007.1
20260508023341 46 261 0.0 0.0 0.00 0.00 0.00 80 1007.1
20260508022723 46 280 0.0 0.0 0.00 0.00 0.00 79 1007.1
20260508021515 47 272 0.0 0.0 0.00 0.00 0.00 75 1007.1
20260508020945 47 263 0.0 0.0 0.00 0.00 0.00 75 1007.1
20260508020349 47 256 0.0 0.0 0.00 0.00 0.00 74 1006.7
20260508015738 48 260 0.0 0.0 0.00 0.00 0.00 74 1006.7
20260508015145 48 260 0.0 0.0 0.00 0.00 0.00 76 1006.7
20260508014517 48 258 0.0 0.0 0.00 0.00 0.00 76 1006.4
20260508012725 49 255 0.0 0.0 0.00 0.00 0.00 71 1006.4
20260508011528 50 244 0.0 0.0 0.00 0.00 0.00 72 1006.0
20260508010935 50 256 0.0 0.0 0.00 0.00 0.00 71 1006.0
20260508010349 50 249 0.0 0.0 0.00 0.00 0.00 70 1006.0
20260508005736 51 248 0.0 0.0 0.00 0.00 0.00 68 1005.7
20260508003908 53 255 0.0 0.0 0.00 0.00 0.00 65 1005.7
20260508003340 54 260 0.0 0.0 0.00 0.00 0.00 62 1005.7
20260508002734 55 261 0.0 0.0 0.00 0.00 0.00 59 1005.7
20260508002110 56 249 0.0 0.0 0.00 0.00 0.00 60 1005.4
20260508001532 58 277 0.0 0.0 0.00 0.00 0.00 53 1005.4
20260508000949 58 228 1.0 1.0 0.00 0.00 0.00 48 1005.4
20260508000335 59 241 3.0 3.0 0.00 0.00 0.00 44 1005.4
20260507235747 60 244 4.0 6.0 0.00 0.00 0.00 45 1005.4
20260507235119 60 231 5.0 8.0 0.00 0.00 0.00 41 1005.4
20260507234551 61 213 5.0 6.0 0.00 0.00 0.00 44 1005.0
20260507233938 61 243 1.0 2.0 0.00 0.00 0.00 44 1005.0
20260507233347 62 247 4.0 6.0 0.00 0.00 0.00 42 1005.0